STARLINK-1950 (46778 NORAD) Tracking and Keplerian Element Data

This shows tracking and keplerian element data for the satellite.

Feedback or suggestion? Click here.




ElementValue
Catalog46778
NameSTARLINK-1950
Epoch Orbit254
Epoch Day311.51092487
Epoch Year2020
RAAN96.2674
Inclination53.0237
Eccentricity0.0009929
Argument of Perigee317.8245
Mean Anonmoly47.819
Mean Motion16.3809109
Decay Rate0.22766354
L11 46778U 20074AR 20311.51092487 .22766354 12436-4 20389-2 0 9997
L22 46778 53.0237 96.2674 0009929 317.8245 47.8190 16.38091090 2544

Live tracking and technical data element details for STARLINK-1950 (NORAD 46778). STARLINK-1950 can be tracked NOW for your location showing map with azimuth and elevation plus other details from your city location.

Track the satellite on the map from your city or location and see movement details for azimuth, elevation, latitude, longitude, range, height, and movement on the map or in text.







IsCatalogInMostPopularTable: catalog: 46778, numindb: 5
Update: records affected: 1



GetName: 46778 STARLINK-1950

Hit Count: updated at: Tue, 24 Nov 2020 11:26:38 GMT